Vorticity
nan nan nan nan nan nan nan nan nan nan nan nan nan nan nan nan nan nan nan nan nan nan nan nan nan nan nan nan nan nan nan nan nan nan nan nan nan nan nan nan nan nan nan
nan 6 5 6 5 5 5 6 7 6 6 5 5 5 5 5 5 6 6 6 5 6 5 5 4 5 5 4 4 5 4 5 6 5 2 3 4 6 7 9 8 7 nan
nan 8 5 4 6 6 6 7 8 7 6 5 5 5 6 5 6 5 6 6 6 5 5 5 5 6 4 3 4 5 6 5 6 5 2 -1 3 7 8 8 6 7 nan
nan 5 7 5 6 7 7 7 8 9 7 6 6 5 6 5 6 5 5 6 7 6 5 6 6 6 4 3 5 6 6 5 4 1 5 5 4 5 5 5 6 4 nan
nan 4 9 7 5 6 6 7 9 10 9 8 7 6 6 6 5 5 5 6 7 6 5 5 4 4 5 6 6 6 5 4 3 4 7 6 7 6 7 7 6 4 nan
nan 8 5 4 5 6 6 7 7 8 9 9 8 8 6 6 4 4 4 5 7 6 5 5 5 4 6 6 6 6 5 3 1 7 11 6 8 7 5 7 8 9 nan
nan 7 5 4 6 6 6 7 6 7 9 8 8 8 7 6 5 4 5 6 7 6 6 7 7 5 6 6 6 5 5 1 8 8 6 7 8 8 5 4 5 5 nan
nan 4 7 5 5 6 6 7 6 7 8 7 7 7 7 6 7 7 6 5 5 6 8 8 6 6 6 6 5 4 3 7 8 6 5 7 7 5 5 4 4 6 nan
nan 5 6 6 3 4 6 7 7 6 7 7 8 7 4 4 7 7 6 6 2 5 10 8 5 5 5 5 5 3 3 10 7 9 4 6 7 5 5 5 4 5 nan
nan 5 6 7 7 5 4 5 8 6 5 7 8 7 8 6 6 5 4 7 8 7 5 6 4 4 6 6 4 4 5 10 7 4 5 12 9 6 4 5 6 5 nan
nan 6 5 7 7 6 6 7 5 6 4 5 4 7 9 9 8 6 6 10 11 10 8 4 7 5 5 4 3 5 2 7 8 6 12 11 7 6 5 4 5 6 nan
nan 5 5 7 6 5 6 8 6 6 5 6 5 5 6 8 8 7 5 7 9 8 10 7 7 5 2 1 5 5 8 5 5 8 11 9 8 6 5 5 6 5 nan
nan 4 9 6 7 5 5 5 6 7 9 10 9 7 8 7 7 9 7 3 5 4 4 5 5 6 3 5 7 3 7 3 6 10 12 9 7 6 6 7 5 5 nan
nan 6 5 6 6 4 6 7 7 6 7 9 11 8 6 8 10 8 7 6 5 6 7 4 5 10 8 6 6 6 2 5 4 8 9 8 8 8 6 5 6 7 nan
nan 9 5 7 5 7 4 5 6 9 9 7 7 9 7 7 8 7 7 8 6 7 7 7 6 7 10 7 8 7 2 10 9 5 9 8 9 7 7 6 6 5 nan
nan 10 10 7 8 6 4 6 7 6 8 9 7 8 7 5 7 7 8 8 7 6 7 8 8 9 10 8 9 6 7 8 8 6 11 8 7 7 9 7 6 5 nan
nan 11 8 8 10 8 6 3 7 6 7 9 10 9 9 6 8 5 7 7 8 9 8 6 9 12 8 11 8 7 9 8 8 7 7 7 6 7 8 8 8 7 nan
nan 10 8 9 7 8 8 4 7 9 7 7 8 10 11 10 8 5 4 8 8 8 10 10 9 7 9 7 7 10 9 8 9 8 8 7 7 6 8 11 8 8 nan
nan 10 10 9 8 8 8 7 8 9 6 9 9 9 10 10 6 6 6 8 8 6 9 8 8 8 8 8 7 10 8 10 7 10 7 7 4 6 10 10 7 7 nan
nan 11 10 10 10 5 7 8 8 9 8 8 10 10 9 9 9 4 5 10 9 7 8 9 8 8 7 9 7 8 10 10 7 8 5 7 9 7 7 8 5 7 nan
nan 9 9 10 5 4 7 8 6 7 6 7 11 11 8 9 9 6 5 10 9 8 10 7 6 10 8 6 7 4 5 12 13 7 7 9 10 6 7 4 5 7 nan
nan 7 10 10 6 4 5 7 7 8 8 9 9 10 9 8 8 8 7 10 8 8 10 7 6 7 9 9 9 5 3 5 12 10 7 8 8 6 9 8 6 6 nan
nan 9 11 11 10 7 3 3 6 6 9 10 9 10 11 9 8 9 9 10 9 8 10 9 7 7 7 10 7 4 3 7 10 9 10 9 6 6 8 8 8 8 nan
nan 12 11 11 10 8 7 6 6 0 5 9 8 9 11 12 9 10 11 10 7 8 10 8 6 8 8 8 6 5 5 7 6 8 11 10 8 8 7 9 10 9 nan
nan 11 11 13 9 8 8 5 6 5 6 7 9 12 8 10 10 11 10 9 7 8 12 10 9 6 8 6 7 7 7 9 11 5 10 10 9 9 8 8 10 11 nan
nan nan nan nan nan nan nan nan nan nan nan nan nan nan nan nan nan nan nan nan nan nan nan nan nan nan nan nan nan nan nan nan nan nan nan nan nan nan nan nan nan nan nan
CAPE
465 1122 1241 1533 1560 1696 1686 1823 1731 1702 1805 1894 2020 2038 2056 2117 2110 2135 2136 2101 2082 2279 2076 1835 1697 1568 1400 1286 1411 1761 1613 1487 1424 1469 1498 1490 1059 931 931 1021 913 841 1053
721 1191 1147 1436 1569 1719 1769 1800 1921 1861 1923 2022 2100 2105 2133 2188 2253 2254 2257 2230 2235 2337 1955 1875 1755 1667 1487 1567 1788 1593 1481 1404 1371 1337 1351 1269 1080 963 851 920 1024 830 1002
1006 1343 1287 1208 1529 1754 1851 1940 2093 2138 2142 2172 2214 2181 2237 2334 2409 2382 2365 2357 2391 2368 2045 1892 1825 1738 1623 1761 1642 1576 1500 1337 1240 1251 1351 869 961 953 924 928 947 976 875
875 1480 1458 1221 1537 1846 1939 2038 2211 2365 2346 2264 2287 2256 2199 2423 2475 2463 2296 2317 2363 2326 2198 1996 1916 1898 1936 1741 1576 1509 1415 1262 1117 1097 784 773 846 949 842 793 1029 999 813
637 1273 1846 1214 1482 1828 1963 2087 2239 2355 2302 2269 2288 2257 2413 2452 2471 2500 2245 2239 2388 2317 2383 2163 1877 1973 1796 1511 1393 1345 1250 1124 969 927 675 718 863 891 755 756 630 663 668
725 1027 935 972 1314 1795 1982 2155 2288 2298 2243 2212 2215 2287 2478 2402 2490 2412 1932 2288 2447 2461 2273 2183 1892 1765 1435 1293 1242 1194 1070 906 691 355 780 685 717 669 731 649 758 712 632
898 1348 1783 871 1178 1727 2017 2099 1927 2106 2196 2167 2228 2291 2014 2394 1965 1807 1953 2200 1996 2196 2087 1953 1875 1487 1276 1156 1086 965 864 568 815 589 791 839 791 767 620 424 370 413 316
1153 1531 1989 968 1155 1512 1871 1834 1517 1884 2082 2148 2198 2175 2252 2148 1699 1959 1993 1899 2015 1922 1665 1711 1436 1275 1120 971 824 657 600 445 496 413 679 519 574 576 442 201 154 237 121
1691 2038 2197 1610 1402 1183 1486 1704 1371 1639 1941 2002 2021 1940 1987 1858 1590 1818 1747 1541 1422 1624 1630 1440 1224 1021 922 581 589 364 283 150 708 441 406 197 370 209 119 67 16 20 35
2263 2427 2382 2152 1868 1841 1812 1532 1447 1440 1590 1883 1631 1312 1414 1284 1282 1313 1281 1374 1329 1386 1308 1215 950 770 530 313 302 129 119 137 291 338 306 172 219 0 0 8 15 15 22
2450 2570 2567 2255 2121 2067 1942 1785 1387 1327 1387 1353 1300 1105 1210 1841 1787 1454 1138 1046 955 847 673 703 544 397 221 137 92 46 102 372 420 175 265 110 215 7 7 13 20 19 21
2454 2456 2719 2495 2266 2183 1746 2093 1925 1915 1941 2059 1922 1894 2050 1668 1687 1164 705 376 376 411 477 398 239 169 227 504 348 77 347 364 106 67 86 125 174 21 16 19 16 12 19
2110 2296 2527 2554 2557 2417 1875 1950 1968 2244 1990 2053 2092 1764 1601 1643 1691 1669 967 407 288 246 598 344 134 313 644 782 644 493 336 135 43 29 26 78 102 27 25 26 18 14 26
1299 1898 2679 2437 2592 2683 2328 1987 1892 1888 2424 2185 2260 2459 2215 1873 1888 1475 934 525 300 209 517 252 199 220 338 457 589 372 188 122 113 58 13 10 38 35 28 21 30 23 19
261 1547 2574 2270 2534 2572 2833 2402 2267 2244 2082 2172 2363 2141 1929 1676 1612 1152 518 529 663 325 120 87 119 165 168 278 320 296 243 224 78 82 14 0 28 52 35 17 19 29 14
0 559 2880 2628 2523 2468 2611 2528 2424 2207 2014 2102 1972 2151 1822 1774 1399 864 563 367 262 201 114 94 103 107 139 135 298 195 186 127 42 33 13 9 19 40 47 35 21 30 30
0 0 2567 3174 2359 2583 2341 2289 2097 2003 1978 1670 1910 2077 1796 1522 1158 817 445 439 805 177 279 84 80 61 99 140 228 229 93 42 27 15 20 25 23 14 33 44 61 34 27
0 0 637 2280 2235 2140 1954 2153 2004 1905 1983 1876 1555 1687 1552 1269 855 525 170 481 258 170 148 74 65 59 67 107 179 105 50 44 27 16 20 32 23 8 20 37 50 44 41
0 0 332 2034 2375 1847 1820 1905 1838 1857 1783 1818 1690 1347 1075 829 639 341 736 226 122 42 92 162 52 57 69 135 127 140 58 17 20 14 43 19 15 10 27 19 19 24 33
0 0 146 1649 2566 1718 1725 1566 1447 1517 1566 1168 1122 1165 732 629 485 620 327 120 282 39 71 100 47 49 104 148 94 65 49 44 15 13 19 15 4 16 15 34 17 18 16
0 0 214 1164 2517 1913 1378 1176 1375 1355 1008 987 630 510 559 373 179 110 85 137 91 1 27 24 41 42 63 282 148 90 129 112 61 26 31 27 33 34 15 43 29 18 1
0 0 256 794 1806 1735 1225 1465 1747 1402 1243 868 739 363 333 232 124 23 97 59 4 2 5 2 32 32 55 154 124 80 77 51 67 41 33 28 63 30 30 46 19 15 13
0 0 172 707 1490 1616 1691 1727 1610 1247 673 579 568 544 402 226 65 48 53 9 1 1 7 4 40 42 105 94 125 18 51 39 36 20 54 21 70 27 35 22 18 13 20
0 28 265 677 1516 1300 1694 1659 1550 793 569 639 615 417 122 15 11 21 10 3 4 2 2 4 37 47 92 111 137 150 83 55 41 33 24 36 33 35 62 21 17 9 7
0 44 426 749 1364 1375 1735 1562 1583 1188 1015 662 586 499 179 10 11 17 1 3 4 2 3 13 41 118 112 161 146 137 162 127 150 104 45 65 35 26 26 75 33 44 36
0 380 721 912 1183 1302 1485 1434 1379 1136 809 394 609 615 184 17 5 2 2 6 7 5 8 6 68 91 133 236 219 173 168 132 120 127 120 154 153 110 99 133 160 106 74